Regional Weather Roundup
Issued by NWS

Home | Current Version | Previous Version | Graphics & Text | Print | Product List | Glossary On
Versions: 1 2 3 4 5 6 7 8 9 10 11 12 13 14 15 16 17 18 19 20 21 22 23 24 25 26 27 28 29 30 31 32 33 34 35 36 37 38 39 40 41 42 43 44 45 46 47 48 49 50
000
ASUS43 KLOT 160110
RWRIL

ILLINOIS REGIONAL WEATHER ROUNDUP
NATIONAL WEATHER SERVICE CHICAGO/ROMEOVILLE IL
800 PM CDT MON SEP 15 2014

NOTE: "FAIR" INDICATES FEW OR NO CLOUDS BELOW 12,000 FEET WITH NO
SIGNIFICANT WEATHER AND/OR OBSTRUCTIONS TO VISIBILITY.

* THESE STATIONS ARE NOT UNDER NWS QUALITY CONTROL. THEY ALSO MAY NOT
  REPORT WEATHER SUCH AS PRECIPITATION OR FOG.

ILZ001-002-007-009-015-016-024-160200-
NORTHWEST ILLINOIS

CITY           SKY/WX    TMP DP  RH WIND       PRES   REMARKS
MOLINE         CLEAR     55  48  77 N5        30.18R
STERLING*      CLEAR     52  46  82 N3        30.17R
SAVANNA*       PTCLDY    52  49  87 N3        30.18R
$$

ILZ003-004-008-010-011-017-018-160200-
NORTH CENTRAL ILLINOIS

CITY           SKY/WX    TMP DP  RH WIND       PRES   REMARKS
ROCKFORD       MOCLDY    53  48  83 N6        30.18R
FREEPORT*      PTCLDY    50  48  92 CALM      30.19R
ROCHELLE*      PTCLDY    51  49  92 N7        30.16R
DE KALB*       PTCLDY    50  48  93 N7        30.16R
PERU*          MOCLDY    55  53  94 N8        30.15R
$$

ILZ005-006-012>014-019>023-160200-
NORTHEAST ILLINOIS

CITY           SKY/WX    TMP DP  RH WIND       PRES   REMARKS
CHICAGO-OHARE  CLOUDY    56  50  80 N12       30.13R
CHICAGO-MIDWAY CLOUDY    60  54  80 N7        30.12R
AURORA         MOCLDY    55  52  89 N8        30.14R
LANSING*       CLOUDY    55  54  96 W5        30.12S FOG
JOLIET*        MOCLDY    54  52  93 CALM      30.13S FOG
WAUKEGAN       CLEAR     51  48  89 NW5       30.13R
DUPAGE AIRPORT CLOUDY    56  52  86 N9        30.13R
KANKAKEE*      CLOUDY    55  54  97 CALM      30.13R
WHEELING       PTCLDY    55  49  80 N6        30.15R
MORRIS*        MOCLDY    55  55 100 CALM      30.12R FOG
ROMEOVILLE*    CLOUDY    55  55 100 CALM      30.12S FOG
NORTHERLY ISL    N/A     58  52  80 MISG        N/A
$$

LMZ740>746-160200-
SOUTHERN LAKE MICHIGAN

STATION/POSITION SKY/WX   TEMP    WIND        PRES    VSBY  WAVE
                          AIR SEA DIR/SP/G                  HT/PER
                          (F)     (DEG/KT/KT) (MB)    (MI)  (FT/S)
SOUTHERN BUOY              57 64   10/ 10/ 14 1019.9R         3/ 4
WAUKEGAN HARBOR            54     340/  8/ 10   N/A
HARRISON CRIB              58     360/ 14/ 16   N/A
BURNHAM HARBOR             58     360/  9/ 14   N/A
CALUMET HARBOR             58     350/  6/ 11 1018.5S
MICHIGAN CITY              56     220/  5/  8   N/A
MICHIGAN CITY 6N           60 64   10/ 14/ 19   N/A           1/ 2
ST. JOSEPH                 61 66   20/ 14/ 19   N/A           3/ 3
$$

ILZ025>027-034>036-040-047-049-050-058-095>099-160200-
WEST-CENTRAL ILLINOIS

CITY           SKY/WX    TMP DP  RH WIND       PRES   REMARKS
QUINCY         CLOUDY    61  56  83 N15       30.15R
GALESBURG*     CLOUDY    55  53  92 N7        30.17R
MACOMB*        CLOUDY    58  55  89 N8        30.18R
JACKSONVILLE*  MOCLDY    59  58  96 NW3       30.14R FOG
PITTSFIELD*    CLOUDY    60  58  92 CALM      30.14R
$$

ILZ028>032-037-038-041>044-048-051>054-059>061-160200-
CENTRAL ILLINOIS

CITY           SKY/WX    TMP DP  RH WIND       PRES   REMARKS
PONTIAC        CLOUDY    57  57 100 N3        30.13R
DECATUR        CLOUDY    60  57  89 NW12      30.11R
PEORIA         CLOUDY    59  55  87 NE5       30.14R
LACON*         CLOUDY    56  55  94 CALM      30.13R
LINCOLN*       PTCLDY    58  56  94 N6        30.11R FOG
SPRINGFIELD    MOCLDY    59  57  93 N6        30.14R
TAYLORVILLE    CLOUDY    59  57  94 N9        30.11R
$$

ILZ033-039-045-046-055>057-062-063-160200-
EAST-CENTRAL ILLINOIS

CITY           SKY/WX    TMP DP  RH WIND       PRES   REMARKS
CHAMPAIGN      CLOUDY    58  58 100 NW7       30.11R FOG
DANVILLE*      LGT RAIN  55  55 100 CALM      30.09R
RANTOUL*       CLOUDY    58  56  91 CALM      30.11S FOG
MATTOON        LGT RAIN  59  58  96 N5        30.09R FOG
PARIS*         DRIZZLE   58  58 100 CALM      30.10R
$$

ILZ079-100>102-160200-
SOUTHWEST ILLINOIS

CITY           SKY/WX    TMP DP  RH WIND       PRES   REMARKS
ALTON          CLOUDY    63  61  94 NW9       30.11R
BELLEVILLE     CLOUDY    65  65  99 W9        30.09R
CAHOKIA*       LGT RAIN  65  63  93 N12       30.11R FOG
SPARTA*        CLOUDY    69  68  96 NW5       30.09R
$$

ILZ064>066-069>071-074>076-080>082-084>086-088>090-092>094-160200-
SOUTH-CENTRAL ILLINOIS

CITY           SKY/WX    TMP DP  RH WIND       PRES   REMARKS
CARBONDALE     CLOUDY    72  65  78 NW5       30.07R
CAIRO*         PTCLDY    71  63  76 S3        30.07S
EFFINGHAM*     RAIN      61  59  91 N3        30.08R
MARION         CLOUDY    73  66  78 CALM      30.07R
MT. VERNON     CLOUDY    66  63  88 CALM      30.07R
CENTRALIA*     DRIZZLE   66  64  91 W3        30.07R
SALEM*         CLOUDY    68  67  94 W6        30.07R
METROPOLIS*    CLEAR     70  63  79 CALM      30.07R
$$

ILZ067-068-072-073-078-083-087-091-160200-
SOUTHEAST ILLINOIS

CITY           SKY/WX    TMP DP  RH WIND       PRES   REMARKS
LAWRENCEVILLE  LGT RAIN  64  60  87 S6        30.06R
FLORA*         DRIZZLE   65  64  94 SW3       30.06R
FAIRFIELD*     RAIN     N/A N/A N/A CALM      30.05S
HARRISBURG*    CLOUDY    71  64  79 CALM      30.07S
ROBINSON*      CLOUDY    62  61  97 CALM      30.08R
CARMI*         LGT RAIN  70  64  82 CALM      30.05S
$$

ABBREVIATIONS USED IN REMARKS
   TC - TEMPERATURE IN CELSIUS
  WCI - WIND CHILL INDEX
   HX - HEAT INDEX
  VSB - VISIBILITY
$$




USA.gov is the U.S. government's official web portal to all federal, state and local government web resources and services.